EN

Hourly Weather Bolshoe Protopopovo

Today, 20 October, Tuesday

Time Temperature Precipitation Wind Pressure Humidity
00:00 -3°C° 0 mm 6 mps 756 mmHg 85%
01:00 -3°C° 0.3 mm 6 mps 754 mmHg 88%
02:00 -3°C° 0.3 mm 6 mps 753 mmHg 91%
03:00 -3°C° 0.3 mm 6 mps 752 mmHg 94%
04:00 -3°C° 0.6 mm 6 mps 751 mmHg 95%
05:00 -3°C° 0.6 mm 6 mps 750 mmHg 95%
06:00 -3°C° 0 mm 6 mps 750 mmHg 96%
07:00 -2°C° 0.5 mm 6 mps 750 mmHg 91%
08:00 -2°C° 0.5 mm 6 mps 749 mmHg 86%
09:00 0°C° 0.5 mm 5 mps 749 mmHg 81%
10:00 0°C° 0.2 mm 5 mps 749 mmHg 84%
11:00 0°C° 0.2 mm 4 mps 749 mmHg 86%
12:00 +1°C° 0.2 mm 3 mps 749 mmHg 89%
13:00 +2°C° 0 mm 3 mps 749 mmHg 87%
14:00 +3°C° 0 mm 3 mps 749 mmHg 85%
15:00 +4°C° 0 mm 3 mps 749 mmHg 83%
16:00 +3°C° 0 mm 3 mps 750 mmHg 87%
17:00 +4°C° 0 mm 2 mps 750 mmHg 90%
18:00 +3°C° 0 mm 2 mps 750 mmHg 94%
19:00 +3°C° 0 mm 2 mps 751 mmHg 94%
20:00 +3°C° 0 mm 2 mps 751 mmHg 94%
21:00 +3°C° 0 mm 2 mps 751 mmHg 95%
22:00 +3°C° 0 mm 2 mps 751 mmHg 95%
23:00 +3°C° 0 mm 2 mps 751 mmHg 95%

Tomorrow, 21 October, Wednesday

Time Temperature Precipitation Wind Pressure Humidity
00:00 +2°C° 0 mm 2 mps 751 mmHg 96%
01:00 +2°C° 0 mm 2 mps 751 mmHg 95%
02:00 +1°C° 0 mm 3 mps 750 mmHg 94%
03:00 +1°C° 0 mm 3 mps 750 mmHg 93%
04:00 +1°C° 0 mm 3 mps 750 mmHg 92%
05:00 +1°C° 0 mm 3 mps 750 mmHg 91%
06:00 +1°C° 0 mm 3 mps 749 mmHg 90%
07:00 +2°C° 0 mm 3 mps 749 mmHg 88%
08:00 +1°C° 0 mm 4 mps 748 mmHg 86%
09:00 +3°C° 0 mm 4 mps 748 mmHg 84%
10:00 +4°C° 0 mm 4 mps 747 mmHg 81%
11:00 +5°C° 0 mm 4 mps 747 mmHg 77%
12:00 +6°C° 0 mm 5 mps 747 mmHg 74%
13:00 +7°C° 0 mm 5 mps 746 mmHg 72%
14:00 +7°C° 0 mm 5 mps 746 mmHg 70%
15:00 +8°C° 0 mm 4 mps 745 mmHg 69%
16:00 +7°C° 0 mm 4 mps 745 mmHg 70%
17:00 +6°C° 0 mm 4 mps 745 mmHg 72%
18:00 +5°C° 0 mm 4 mps 745 mmHg 73%
19:00 +4°C° 0 mm 4 mps 745 mmHg 73%
20:00 +4°C° 0 mm 4 mps 744 mmHg 72%
21:00 +4°C° 0 mm 3 mps 744 mmHg 71%
22:00 +3°C° 0 mm 3 mps 743 mmHg 71%
23:00 +3°C° 0 mm 3 mps 743 mmHg 72%

Day after tomorrow, 22 October, Thursday

Time Temperature Precipitation Wind Pressure Humidity
00:00 +3°C° 0 mm 3 mps 742 mmHg 72%
01:00 +3°C° 0 mm 3 mps 741 mmHg 72%
02:00 +3°C° 0 mm 3 mps 740 mmHg 72%
03:00 +3°C° 0 mm 3 mps 739 mmHg 72%
04:00 +3°C° 0 mm 4 mps 739 mmHg 72%
05:00 +3°C° 0 mm 4 mps 738 mmHg 71%
06:00 +4°C° 0 mm 4 mps 738 mmHg 71%
07:00 +3°C° 0 mm 5 mps 737 mmHg 67%
08:00 +5°C° 0 mm 5 mps 737 mmHg 64%
09:00 +5°C° 0 mm 5 mps 736 mmHg 60%
10:00 +6°C° 0 mm 5 mps 736 mmHg 59%
11:00 +7°C° 0 mm 5 mps 736 mmHg 58%
12:00 +7°C° 0 mm 5 mps 736 mmHg 56%
13:00 +8°C° 0 mm 5 mps 736 mmHg 58%
14:00 +8°C° 0 mm 5 mps 736 mmHg 60%
15:00 +8°C° 0 mm 5 mps 736 mmHg 62%
16:00 +7°C° 0.1 mm 5 mps 737 mmHg 69%
17:00 +6°C° 0.1 mm 5 mps 738 mmHg 77%
18:00 +4°C° 0.1 mm 6 mps 739 mmHg 85%
19:00 +3°C° 0.2 mm 6 mps 740 mmHg 84%
20:00 +1°C° 0.2 mm 6 mps 742 mmHg 84%
21:00 -1°C° 0.2 mm 6 mps 743 mmHg 84%
22:00 0°C° 0 mm 5 mps 744 mmHg 83%
23:00 0°C° 0 mm 4 mps 745 mmHg 82%

23 October, Friday

Time Temperature Precipitation Wind Pressure Humidity
00:00 0°C° 0 mm 3 mps 745 mmHg 82%
01:00 0°C° 0 mm 3 mps 746 mmHg 83%
02:00 0°C° 0 mm 3 mps 746 mmHg 84%
03:00 -1°C° 0 mm 3 mps 747 mmHg 85%
04:00 -1°C° 0 mm 3 mps 747 mmHg 86%
05:00 -1°C° 0 mm 3 mps 747 mmHg 87%
06:00 -1°C° 0 mm 3 mps 747 mmHg 87%
07:00 0°C° 0.1 mm 3 mps 747 mmHg 85%
08:00 0°C° 0.1 mm 4 mps 747 mmHg 82%
09:00 0°C° 0.1 mm 4 mps 746 mmHg 79%
10:00 +1°C° 0.2 mm 4 mps 746 mmHg 76%
11:00 +2°C° 0.2 mm 5 mps 746 mmHg 73%
12:00 +3°C° 0.2 mm 5 mps 746 mmHg 70%
13:00 +3°C° 0.3 mm 5 mps 746 mmHg 68%
14:00 +3°C° 0.3 mm 4 mps 746 mmHg 67%
15:00 +3°C° 0.3 mm 4 mps 746 mmHg 65%
16:00 +1°C° 0.1 mm 4 mps 747 mmHg 69%
17:00 +1°C° 0.1 mm 3 mps 747 mmHg 73%
18:00 +1°C° 0.1 mm 2 mps 747 mmHg 78%
19:00 +1°C° 0 mm 2 mps 748 mmHg 79%
20:00 -1°C° 0 mm 2 mps 748 mmHg 80%
21:00 -1°C° 0 mm 2 mps 748 mmHg 81%
22:00 -1°C° 0 mm 2 mps 749 mmHg 80%
23:00 -1°C° 0 mm 3 mps 749 mmHg 79%

24 October, Saturday

Time Temperature Precipitation Wind Pressure Humidity
00:00 -1°C° 0 mm 3 mps 749 mmHg 77%
01:00 -1°C° 0 mm 3 mps 749 mmHg 81%
02:00 -1°C° 0 mm 3 mps 750 mmHg 84%
03:00 -2°C° 0 mm 4 mps 750 mmHg 87%
04:00 -2°C° 0.1 mm 4 mps 750 mmHg 85%
05:00 -1°C° 0.1 mm 3 mps 750 mmHg 84%
06:00 -1°C° 0.1 mm 3 mps 751 mmHg 82%
07:00 -2°C° 0.1 mm 4 mps 751 mmHg 82%
08:00 -2°C° 0.1 mm 4 mps 751 mmHg 83%
09:00 -2°C° 0.1 mm 4 mps 751 mmHg 83%
10:00 -2°C° 0.1 mm 4 mps 751 mmHg 82%
11:00 -2°C° 0.1 mm 4 mps 751 mmHg 80%
12:00 -2°C° 0.1 mm 4 mps 751 mmHg 79%
13:00 -1°C° 0.1 mm 4 mps 752 mmHg 75%
14:00 -1°C° 0.1 mm 4 mps 752 mmHg 70%
15:00 -1°C° 0.1 mm 4 mps 752 mmHg 66%
16:00 -2°C° 0 mm 4 mps 752 mmHg 71%
17:00 -2°C° 0 mm 4 mps 753 mmHg 76%
18:00 -2°C° 0 mm 3 mps 753 mmHg 81%
19:00 -2°C° 0.4 mm 3 mps 754 mmHg 81%
20:00 -4°C° 0.4 mm 3 mps 754 mmHg 81%
21:00 -4°C° 0.4 mm 3 mps 755 mmHg 81%
22:00 -5°C° 0.1 mm 3 mps 756 mmHg 82%
23:00 -4°C° 0.1 mm 2 mps 756 mmHg 82%

25 October, Sunday

Time Temperature Precipitation Wind Pressure Humidity
00:00 -4°C° 0.1 mm 2 mps 757 mmHg 83%
01:00 -5°C° 0.1 mm 2 mps 758 mmHg 82%
02:00 -5°C° 0.1 mm 2 mps 758 mmHg 82%
03:00 -5°C° 0.1 mm 2 mps 759 mmHg 81%
04:00 -5°C° 0 mm 2 mps 759 mmHg 82%
05:00 -5°C° 0 mm 2 mps 759 mmHg 83%
06:00 -5°C° 0 mm 2 mps 760 mmHg 84%
07:00 -5°C° 0 mm 2 mps 760 mmHg 81%
08:00 -6°C° 0 mm 3 mps 760 mmHg 78%
09:00 -6°C° 0 mm 3 mps 760 mmHg 75%
10:00 -5°C° 0 mm 3 mps 760 mmHg 70%
11:00 -4°C° 0 mm 3 mps 760 mmHg 65%
12:00 -2°C° 0 mm 3 mps 759 mmHg 61%
13:00 -2°C° 0 mm 3 mps 759 mmHg 60%
14:00 -2°C° 0 mm 3 mps 759 mmHg 59%
15:00 -2°C° 0 mm 3 mps 758 mmHg 58%
16:00 -2°C° 0 mm 2 mps 758 mmHg 62%
17:00 -2°C° 0 mm 2 mps 758 mmHg 65%
18:00 -3°C° 0 mm 2 mps 757 mmHg 68%
19:00 -3°C° 0.2 mm 2 mps 757 mmHg 76%
20:00 -4°C° 0.2 mm 3 mps 756 mmHg 85%
21:00 -4°C° 0.2 mm 3 mps 755 mmHg 94%
22:00 -4°C° 0.4 mm 3 mps 755 mmHg 94%
23:00 -4°C° 0.4 mm 3 mps 754 mmHg 95%

26 October, Monday

Time Temperature Precipitation Wind Pressure Humidity
00:00 -2°C° 0.4 mm 3 mps 753 mmHg 95%
01:00 -2°C° 0.3 mm 3 mps 753 mmHg 95%
02:00 -2°C° 0.3 mm 2 mps 752 mmHg 96%
03:00 -2°C° 0.3 mm 2 mps 752 mmHg 97%
04:00 -2°C° 0.3 mm 2 mps 751 mmHg 96%
05:00 -2°C° 0.3 mm 3 mps 751 mmHg 96%
06:00 -2°C° 0.3 mm 3 mps 751 mmHg 96%
07:00 -2°C° 0.2 mm 3 mps 751 mmHg 95%
08:00 -2°C° 0.2 mm 3 mps 751 mmHg 93%
09:00 -2°C° 0.2 mm 3 mps 751 mmHg 92%
10:00 -1°C° 0 mm 3 mps 751 mmHg 90%
11:00 -2°C° 0 mm 4 mps 752 mmHg 87%
12:00 -2°C° 0 mm 4 mps 752 mmHg 85%
13:00 -2°C° 0 mm 4 mps 753 mmHg 85%
14:00 -2°C° 0 mm 4 mps 753 mmHg 85%
15:00 -3°C° 0 mm 4 mps 754 mmHg 85%
16:00 -3°C° 0 mm 4 mps 755 mmHg 85%
17:00 -4°C° 0 mm 3 mps 756 mmHg 85%
18:00 -4°C° 0 mm 3 mps 757 mmHg 84%
19:00 -4°C° 0 mm 3 mps 757 mmHg 83%
20:00 -4°C° 0 mm 3 mps 758 mmHg 82%
21:00 -3°C° 0 mm 2 mps 759 mmHg 81%
22:00 -4°C° 0 mm 2 mps 759 mmHg 85%
23:00 -5°C° 0 mm 2 mps 760 mmHg 88%
Show more